20050707,000022,703928,32.826541,-119.112042,16.275,33.360,0.891,1.224
20050707,000052,703958,32.827330,-119.110568,16.270,33.361,0.896,1.239
20050707,000122,703987,32.828098,-119.109078,16.262,33.354,0.901,1.260
20050707,000153,704019,32.828881,-119.107610,16.255,33.365,0.912,1.283
20050707,000222,704048,32.829653,-119.106107,16.254,33.362,0.896,1.249
20050707,000252,704078,32.830468,-119.104632,16.251,33.362,0.912,1.275
20050707,000322,704108,32.831240,-119.103153,16.245,33.363,0.928,1.310
20050707,000353,704139,32.832025,-119.101665,16.237,33.365,0.912,1.284
20050707,000422,704167,32.832806,-119.100183,16.229,33.364,0.907,1.311
20050707,000452,704197,32.833568,-119.098705,16.223,33.360,0.945,1.426
20050707,000523,704228,32.834373,-119.097175,16.219,33.360,0.928,1.378
20050707,000552,704258,32.835126,-119.095742,16.212,33.359,0.912,1.318
20050707,000622,704288,32.835915,-119.094250,16.213,33.353,0.858,1.192
20050707,000652,704317,32.836713,-119.092773,16.208,33.353,0.842,1.155
20050707,000722,704347,32.837495,-119.091305,16.204,33.344,0.864,1.226
20050707,000753,704379,32.838323,-119.089777,16.196,33.352,0.896,1.312
20050707,000822,704408,32.839073,-119.088330,16.185,33.354,0.928,1.381
20050707,000853,704438,32.839875,-119.086873,16.179,33.351,0.934,1.419
20050707,000922,704468,32.840670,-119.085400,16.172,33.352,0.939,1.409
20050707,000953,704499,32.841453,-119.083918,16.159,33.350,0.912,1.342
20050707,001022,704527,32.842251,-119.082482,16.139,33.352,0.939,1.389
20050707,001053,704559,32.843051,-119.081012,16.123,33.351,0.896,1.288
20050707,001122,704588,32.843846,-119.079557,16.115,33.344,0.896,1.262
20050707,001152,704618,32.844591,-119.078102,16.109,33.341,0.939,1.339
20050707,001223,704649,32.845366,-119.076672,16.100,33.337,0.945,1.365
20050707,001252,704677,32.846110,-119.075228,16.095,33.336,0.961,1.383
20050707,001323,704709,32.846878,-119.073787,16.094,33.332,0.972,1.388
20050707,001352,704738,32.847661,-119.072320,16.092,33.329,0.983,1.403
20050707,001423,704768,32.848475,-119.070798,16.093,33.327,1.020,1.482
20050707,001452,704798,32.849233,-119.069358,16.101,33.318,1.037,1.516
20050707,001523,704829,32.850036,-119.067903,16.115,33.308,1.069,1.584
20050707,001552,704857,32.850848,-119.066425,16.127,33.304,1.053,1.552
20050707,001623,704889,32.851685,-119.064925,16.140,33.298,1.090,1.651
20050707,001653,704918,32.852478,-119.063440,16.143,33.303,1.101,1.678
20050707,001722,704948,32.853258,-119.061998,16.146,33.304,1.101,1.686
20050707,001752,704978,32.854076,-119.060537,16.146,33.301,1.096,1.673
20050707,001822,705007,32.854883,-119.059070,16.146,33.302,1.112,1.688
20050707,001852,705037,32.855675,-119.057620,16.151,33.298,1.037,1.517
20050707,001922,705068,32.856460,-119.056180,16.155,33.295,1.042,1.533
20050707,001952,705098,32.857270,-119.054725,16.164,33.290,1.053,1.557
20050707,002022,705128,32.858085,-119.053247,16.172,33.286,1.074,1.593
20050707,002052,705158,32.858901,-119.051792,16.176,33.287,1.133,1.706
20050707,002123,705189,32.859696,-119.050362,16.176,33.284,1.080,1.600
20050707,002153,705219,32.860518,-119.048928,16.178,33.282,1.144,1.741
20050707,002222,705248,32.861336,-119.047483,16.185,33.279,1.101,1.645
20050707,002253,705278,32.862136,-119.045967,16.186,33.280,1.090,1.611
20050707,002322,705308,32.862933,-119.044573,16.189,33.274,1.058,1.537
20050707,002352,705337,32.863733,-119.043117,16.195,33.276,1.042,1.505
20050707,002423,705369,32.864565,-119.041607,16.201,33.274,1.047,1.514
20050707,002453,705399,32.865398,-119.040162,16.202,33.274,1.020,1.454
20050707,002522,705428,32.866185,-119.038738,16.205,33.280,1.037,1.486
20050707,002553,705458,32.867035,-119.037232,16.204,33.273,1.020,1.456
20050707,002623,705489,32.867856,-119.035757,16.207,33.268,1.063,1.540
20050707,002653,705519,32.868685,-119.034290,16.209,33.266,1.101,1.611
20050707,002723,705549,32.869490,-119.032892,16.216,33.263,1.090,1.608
20050707,002753,705578,32.870330,-119.031368,16.217,33.265,1.037,1.498
20050707,002823,705608,32.871151,-119.029897,16.218,33.267,1.042,1.494
20050707,002853,705639,32.871975,-119.028430,16.216,33.263,1.063,1.522
20050707,002923,705669,32.872793,-119.026950,16.213,33.262,1.069,1.535
20050707,002953,705699,32.873575,-119.025508,16.210,33.264,1.074,1.571
20050707,003023,705729,32.874403,-119.024037,16.206,33.260,1.031,1.480
20050707,003053,705758,32.875243,-119.022522,16.206,33.260,1.090,1.584
20050707,003123,705788,32.876070,-119.021050,16.207,33.259,1.069,1.534
20050707,003153,705819,32.876888,-119.019608,16.203,33.259,1.047,1.492
20050707,003223,705849,32.877675,-119.018157,16.196,33.258,1.107,1.611
20050707,003253,705879,32.878485,-119.016687,16.196,33.256,1.053,1.497
20050707,003324,705910,32.879298,-119.015218,16.202,33.250,1.069,1.524
20050707,003354,705940,32.880126,-119.013757,16.207,33.246,1.053,1.492
20050707,003424,705970,32.880935,-119.012278,16.214,33.244,1.053,1.483
20050707,003453,705999,32.881738,-119.010817,16.223,33.243,1.107,1.578
20050707,003523,706029,32.882553,-119.009378,16.229,33.243,1.074,1.502
20050707,003553,706059,32.883358,-119.007907,16.231,33.244,1.080,1.517
20050707,003624,706090,32.884200,-119.006457,16.235,33.244,1.090,1.540
20050707,003653,706118,32.885020,-119.004993,16.237,33.245,1.069,1.491
20050707,003723,706149,32.885881,-119.003500,16.240,33.244,1.090,1.526
20050707,003753,706179,32.886700,-119.002015,16.240,33.246,1.069,1.481
20050707,003823,706209,32.887530,-119.000537,16.242,33.245,1.117,1.582
20050707,003853,706239,32.888341,-118.999075,16.242,33.247,1.053,1.456
20050707,003923,706268,32.889186,-118.997660,16.241,33.283,1.096,1.546
20050707,003953,706298,32.889998,-118.996198,16.242,33.284,1.090,1.535
20050707,004023,706329,32.890810,-118.994733,16.245,33.281,1.090,1.531
20050707,004053,706359,32.891610,-118.993256,16.246,33.281,1.058,1.461
20050707,004124,706390,32.892415,-118.991816,16.244,33.281,1.053,1.447
20050707,004153,706419,32.893206,-118.990348,16.244,33.281,1.042,1.426
20050707,004223,706448,32.894011,-118.988900,16.249,33.277,1.053,1.449
20050707,004253,706479,32.894835,-118.987426,16.251,33.277,1.042,1.428
20050707,004323,706509,32.895641,-118.985945,16.256,33.276,1.031,1.399
20050707,004354,706539,32.896450,-118.984478,16.256,33.277,1.058,1.446
20050707,004423,706569,32.897283,-118.983010,16.261,33.273,1.096,1.520
20050707,004454,706600,32.898098,-118.981521,16.267,33.264,1.058,1.444
20050707,004523,706628,32.898920,-118.980050,16.268,33.278,1.020,1.370
20050707,004553,706659,32.899726,-118.978598,16.274,33.272,1.009,1.350
20050707,004623,706689,32.900548,-118.977151,16.277,33.270,1.026,1.383
20050707,004653,706719,32.901353,-118.975680,16.280,33.267,1.009,1.355
20050707,004723,706749,32.902155,-118.974230,16.282,33.271,1.020,1.379
20050707,004753,706778,32.902985,-118.972791,16.285,33.305,1.020,1.377
20050707,004823,706808,32.903791,-118.971321,16.289,33.305,1.026,1.379
20050707,004854,706839,32.904575,-118.969850,16.295,33.300,1.031,1.383
20050707,004923,706869,32.905393,-118.968401,16.297,33.302,1.020,1.361
20050707,004954,706900,32.906195,-118.966920,16.298,33.303,1.031,1.386
20050707,005023,706928,32.906846,-118.965548,16.297,33.305,1.171,1.665
20050707,005054,706960,32.907338,-118.964326,16.298,33.307,1.020,1.370
20050707,005123,706989,32.907805,-118.963213,16.299,33.305,1.026,1.385
20050707,005153,707019,32.908256,-118.962120,16.302,33.305,1.058,1.449
20050707,005224,707049,32.908701,-118.961010,16.307,33.305,1.026,1.384
20050707,005253,707079,32.909168,-118.959928,16.308,33.286,1.026,1.385
20050707,005323,707108,32.909601,-118.958816,16.314,33.300,1.031,1.399
20050707,005354,707140,32.910063,-118.957718,16.317,33.302,1.026,1.395
20050707,005423,707169,32.910508,-118.956636,16.317,33.304,1.004,1.357
20050707,005453,707199,32.910966,-118.955558,16.314,33.302,1.015,1.382
20050707,005523,707229,32.911380,-118.954453,16.319,33.300,1.015,1.381
20050707,005553,707259,32.911748,-118.953328,16.317,33.303,1.020,1.386
20050707,005624,707290,32.912141,-118.952225,16.320,33.296,1.004,1.351
20050707,005653,707318,32.912531,-118.951086,16.323,33.298,1.004,1.348
20050707,005723,707349,32.912935,-118.949923,16.327,33.297,1.037,1.408
20050707,005753,707379,32.913336,-118.948756,16.332,33.295,1.031,1.395
20050707,005823,707409,32.913738,-118.947591,16.331,33.296,1.031,1.391
20050707,005854,707440,32.914121,-118.946405,16.336,33.294,1.085,1.490
20050707,005923,707468,32.914531,-118.945243,16.340,33.292,1.074,1.462
20050707,005953,707499,32.914933,-118.944070,16.345,33.294,1.026,1.365
20050707,010023,707529,32.915321,-118.942925,16.348,33.292,1.058,1.424
20050707,010054,707559,32.915748,-118.941733,16.353,33.294,1.047,1.405
20050707,010123,707589,32.916131,-118.940556,16.353,33.293,1.080,1.469
20050707,010153,707618,32.916578,-118.939451,16.356,33.293,1.053,1.418
20050707,010224,707650,32.917075,-118.939101,16.361,33.290,1.042,1.398
20050707,010253,707679,32.917358,-118.939086,16.368,33.334,1.128,1.564
20050707,010323,707709,32.917525,-118.939155,16.377,33.334,1.090,1.487
20050707,010354,707740,32.917618,-118.939196,16.380,33.335,1.080,1.463
20050707,010423,707769,32.917701,-118.939256,16.375,33.341,1.053,1.408
20050707,010453,707798,32.917798,-118.939350,16.371,33.340,1.063,1.425
20050707,010523,707829,32.917911,-118.939446,16.372,33.338,1.058,1.413
20050707,010554,707859,32.918035,-118.939571,16.371,33.337,1.047,1.393
20050707,010623,707889,32.918160,-118.939708,16.370,33.337,1.107,1.507
20050707,010653,707919,32.918268,-118.939858,16.368,28.203,1.085,1.465
20050707,010723,707948,32.918361,-118.940011,16.369,33.347,1.107,1.506
20050707,010753,707978,32.918456,-118.940158,16.366,33.346,1.096,1.485
20050707,010824,708010,32.918560,-118.940330,16.365,33.347,1.085,1.465
20050707,010853,708039,32.918638,-118.940480,16.363,33.344,1.101,1.498
20050707,010924,708069,32.918718,-118.940650,16.367,33.345,1.074,1.452
20050707,010953,708099,32.918796,-118.940818,16.368,33.345,1.058,1.424
20050707,011023,708128,32.918868,-118.940968,16.366,33.344,1.101,1.508
20050707,011053,708158,32.918945,-118.941123,16.363,33.347,1.074,1.460
20050707,011124,708189,32.919003,-118.941298,16.364,33.345,1.090,1.496
20050707,011153,708219,32.919030,-118.941416,16.360,33.347,1.117,1.554
20050707,011223,708249,32.919080,-118.941546,16.359,33.346,1.063,1.448
20050707,011254,708280,32.919140,-118.941690,16.356,33.341,1.112,1.537
20050707,011323,708308,32.919191,-118.941825,16.359,33.342,1.085,1.484
20050707,011353,708339,32.919246,-118.941988,16.362,33.343,1.053,1.426
20050707,011424,708369,32.919300,-118.942153,16.359,33.348,1.069,1.459
20050707,011453,708399,32.919340,-118.942313,16.354,33.349,1.112,1.542
20050707,011524,708430,32.919400,-118.942475,16.356,33.344,1.090,1.497
20050707,011553,708458,32.919488,-118.942638,16.360,33.343,1.037,1.389
20050707,011624,708490,32.919540,-118.942776,16.361,33.343,1.090,1.499
20050707,011654,708520,32.919596,-118.942943,16.361,33.343,1.047,1.419
20050707,011723,708549,32.919610,-118.943095,16.359,33.345,1.047,1.411
20050707,011754,708579,32.919630,-118.943278,16.354,33.344,1.107,1.513
20050707,011824,708610,32.919655,-118.943431,16.352,33.345,1.053,1.404
20050707,011853,708638,32.919698,-118.943605,16.351,33.343,1.090,1.476
20050707,011924,708670,32.919755,-118.943776,16.355,33.339,1.058,1.418
20050707,011953,708699,32.919791,-118.943900,16.355,33.341,1.096,1.492
20050707,012024,708729,32.919801,-118.943983,16.353,33.343,1.085,1.469
20050707,012053,708759,32.919800,-118.944048,16.353,33.343,1.117,1.533
20050707,012124,708790,32.919781,-118.944155,16.349,33.342,1.069,1.435
20050707,012154,708820,32.919768,-118.944248,16.345,33.344,1.074,1.440
20050707,012223,708849,32.919753,-118.944341,16.340,33.340,1.063,1.419
20050707,012254,708879,32.919751,-118.944433,16.337,33.344,1.096,1.485
20050707,012324,708909,32.919751,-118.944500,16.340,33.338,1.074,1.446
20050707,012354,708940,32.919753,-118.944550,16.341,33.338,1.063,1.427
20050707,012424,708970,32.919756,-118.944606,16.340,33.340,1.053,1.412
20050707,012454,709000,32.919788,-118.944680,16.344,33.337,1.101,1.507
20050707,012524,709030,32.919816,-118.944780,16.346,33.337,1.112,1.526
20050707,012553,709059,32.919851,-118.944893,16.345,33.340,1.053,1.410
20050707,012624,709090,32.919876,-118.945028,16.338,33.342,1.074,1.450
20050707,012654,709120,32.919873,-118.945123,16.336,33.339,1.090,1.476
20050707,012724,709150,32.919851,-118.945171,16.339,33.336,1.085,1.465
20050707,012754,709180,32.919786,-118.945193,16.339,33.336,1.096,1.486
20050707,012824,709209,32.919690,-118.945208,16.336,33.341,1.058,1.412
20050707,012854,709239,32.919563,-118.945336,16.338,33.338,1.144,1.580
20050707,012924,709270,32.919466,-118.945553,16.341,33.335,1.080,1.454
20050707,012954,709300,32.919438,-118.945725,16.340,33.335,1.080,1.447
20050707,013024,709330,32.919461,-118.945836,16.341,33.336,1.085,1.452
20050707,013054,709360,32.919548,-118.945921,16.338,33.335,1.074,1.432
20050707,013124,709389,32.919641,-118.946036,16.338,33.351,1.053,1.390
20050707,013154,709419,32.919758,-118.946176,16.338,33.350,1.101,1.478
20050707,013224,709450,32.919821,-118.946316,16.338,33.352,1.080,1.436
20050707,013254,709480,32.919886,-118.946458,16.339,33.350,1.053,1.384
20050707,013324,709510,32.919958,-118.946608,16.336,33.352,1.128,1.530
20050707,013354,709539,32.920050,-118.946758,16.332,33.352,1.080,1.439
20050707,013424,709569,32.920136,-118.946923,16.330,33.351,1.123,1.523
20050707,013454,709600,32.920235,-118.947101,16.332,33.348,1.117,1.513
20050707,013524,709630,32.920325,-118.947286,16.333,33.349,1.037,1.360
20050707,013554,709660,32.920421,-118.947471,16.328,33.353,1.090,1.460
20050707,013624,709690,32.920533,-118.947660,16.325,33.351,1.117,1.513
20050707,013655,709721,32.920626,-118.947868,16.327,33.349,1.085,1.455
20050707,013724,709749,32.920723,-118.948000,16.324,33.350,1.096,1.478
20050707,013754,709780,32.920790,-118.948060,16.322,33.349,1.069,1.426
20050707,013824,709810,32.920830,-118.948078,16.322,33.349,1.107,1.496
20050707,013854,709840,32.920890,-118.948116,16.318,33.350,1.058,1.400
20050707,013924,709870,32.920971,-118.948200,16.316,33.350,1.112,1.500
20050707,013954,709899,32.921058,-118.948301,16.311,33.349,1.047,1.374
20050707,014024,709929,32.921148,-118.948415,16.311,33.347,1.090,1.453
20050707,014054,709960,32.921241,-118.948533,16.311,33.348,1.063,1.402
20050707,014125,709990,32.921348,-118.948685,16.309,33.346,1.074,1.422
20050707,014154,710020,32.921396,-118.948836,16.310,33.345,1.058,1.393
20050707,014224,710049,32.921468,-118.949005,16.306,33.349,1.085,1.445
20050707,014254,710079,32.921543,-118.949163,16.306,33.346,1.096,1.461
20050707,014325,710111,32.921613,-118.949298,16.305,33.347,1.085,1.438
20050707,014354,710140,32.921678,-118.949401,16.302,33.348,1.053,1.376
20050707,014424,710170,32.921725,-118.949461,16.302,33.344,1.090,1.446
20050707,014454,710200,32.921758,-118.949506,16.302,33.344,1.047,1.365
20050707,014525,710231,32.921776,-118.949575,16.300,33.345,1.101,1.468
20050707,014555,710261,32.921775,-118.949665,16.300,33.344,1.112,1.490
20050707,014624,710290,32.921748,-118.949776,16.298,33.346,1.085,1.441
20050707,014655,710320,32.921695,-118.949918,16.297,33.344,1.015,1.310
20050707,014724,710350,32.921631,-118.950066,16.293,33.346,1.047,1.364
20050707,014755,710381,32.921571,-118.950246,16.294,33.343,1.085,1.432
20050707,014824,710409,32.921556,-118.950410,16.294,33.344,1.080,1.421
20050707,014854,710440,32.921573,-118.950583,16.295,33.344,1.069,1.400
20050707,014925,710470,32.921633,-118.950743,16.297,33.344,1.069,1.399
20050707,014954,710500,32.921686,-118.950891,16.293,33.345,1.063,1.388
20050707,015025,710531,32.921723,-118.951030,16.291,33.346,1.085,1.426
20050707,015054,710559,32.921751,-118.951153,16.292,33.344,1.053,1.363
20050707,015125,710591,32.921780,-118.951313,16.289,33.345,1.085,1.423
20050707,015154,710620,32.921836,-118.951463,16.291,33.348,1.096,1.443
20050707,015225,710650,32.921906,-118.951628,16.288,33.348,1.090,1.431
20050707,015254,710680,32.921958,-118.951808,16.287,33.346,1.069,1.391
20050707,015325,710711,32.922025,-118.951998,16.283,33.348,1.069,1.392
20050707,015355,710741,32.922080,-118.952186,16.281,33.346,1.085,1.422
20050707,015425,710771,32.922123,-118.952345,16.284,33.344,1.144,1.533
20050707,015455,710800,32.922175,-118.952520,16.285,33.346,1.117,1.486
20050707,015525,710830,32.922218,-118.952651,16.284,33.349,1.107,1.468
20050707,015554,710860,32.922235,-118.952780,16.282,33.349,1.047,1.356
20050707,015624,710889,32.922266,-118.952920,16.281,33.348,1.123,1.494
20050707,015654,710919,32.922316,-118.953071,16.282,33.346,1.090,1.428
20050707,015725,710951,32.922368,-118.953245,16.281,33.348,1.187,1.611
20050707,015755,710980,32.922426,-118.953428,16.280,33.346,1.096,1.437
20050707,015824,711010,32.922498,-118.953596,16.279,33.346,1.069,1.386
20050707,015855,711041,32.922578,-118.953773,16.281,33.343,1.096,1.435
20050707,015924,711069,32.922663,-118.953970,16.279,33.346,1.042,1.335
20050707,015955,711101,32.922730,-118.954190,16.275,33.348,1.031,1.316
20050707,020025,711131,32.922768,-118.954373,16.275,33.343,1.090,1.426
20050707,020054,711160,32.922800,-118.954565,16.275,33.346,1.101,1.447
20050707,020125,711190,32.922836,-118.954726,16.272,33.344,1.074,1.392
20050707,020155,711221,32.922880,-118.954870,16.275,33.341,1.053,1.351
20050707,020225,711251,32.922956,-118.955036,16.275,33.340,1.101,1.441
20050707,020255,711281,32.923028,-118.955170,16.272,33.344,1.042,1.332
20050707,020325,711310,32.923120,-118.955300,16.270,33.345,1.139,1.514
20050707,020355,711340,32.923181,-118.955456,16.270,33.341,1.090,1.423
20050707,020424,711370,32.923236,-118.955636,16.271,33.340,1.107,1.452
20050707,020455,711401,32.923293,-118.955803,16.268,33.342,1.058,1.363
20050707,020525,711431,32.923365,-118.955975,16.265,33.341,1.085,1.412
20050707,020555,711461,32.923453,-118.956151,16.262,33.343,1.096,1.428
20050707,020625,711490,32.923536,-118.956343,16.261,33.342,1.117,1.464
20050707,020655,711520,32.923630,-118.956561,16.259,33.340,1.123,1.475
20050707,020725,711551,32.923723,-118.956775,16.258,33.341,1.074,1.388
20050707,020755,711581,32.923806,-118.956983,16.256,33.341,1.085,1.407
20050707,020826,711612,32.923903,-118.957208,16.257,33.340,1.171,1.569
20050707,020855,711641,32.923980,-118.957391,16.255,33.339,1.144,1.516
20050707,020925,711670,32.924080,-118.957583,16.254,33.340,1.117,1.466
20050707,020956,711702,32.924161,-118.957788,16.252,33.339,1.058,1.355
20050707,021025,711731,32.924230,-118.957978,16.249,33.340,1.085,1.403
20050707,021056,711761,32.924291,-118.958176,16.248,33.339,1.139,1.502
20050707,021125,711791,32.924376,-118.958363,16.251,33.336,1.182,1.585
20050707,021155,711820,32.924455,-118.958548,16.249,33.338,1.101,1.432
20050707,021226,711852,32.924533,-118.958721,16.246,33.339,1.047,1.333
20050707,021255,711881,32.924598,-118.958911,16.247,33.337,1.058,1.353
20050707,021326,711911,32.924653,-118.959118,16.244,33.337,1.123,1.472
20050707,021355,711941,32.924723,-118.959301,16.244,33.335,1.117,1.460
20050707,021425,711971,32.924775,-118.959415,16.242,33.335,1.085,1.399
20050707,021455,712000,32.924815,-118.959478,16.241,33.336,1.063,1.360
20050707,021526,712032,32.924836,-118.959503,16.242,33.333,1.042,1.321
20050707,021555,712061,32.924863,-118.959505,16.240,33.335,1.069,1.368
20050707,021625,712091,32.924855,-118.959511,16.238,33.333,1.096,1.418
20050707,021654,712119,32.924841,-118.959561,16.237,33.324,1.037,1.311
20050707,021725,712150,32.924813,-118.959633,16.233,33.336,1.090,1.407
20050707,021755,712180,32.924770,-118.959726,16.234,33.335,1.069,1.366
20050707,021825,712211,32.924726,-118.959831,16.235,33.334,1.047,1.326
20050707,021855,712241,32.924683,-118.959943,16.235,33.334,1.058,1.344
20050707,021925,712271,32.924653,-118.960061,16.235,33.334,1.042,1.314
20050707,021955,712301,32.924641,-118.960166,16.236,33.332,1.047,1.323
20050707,022025,712330,32.924653,-118.960265,16.235,33.334,1.074,1.372
20050707,022055,712360,32.924680,-118.960323,16.234,33.337,1.069,1.362
20050707,022125,712391,32.924701,-118.960368,16.235,33.331,1.069,1.362
20050707,022155,712421,32.924746,-118.960393,16.237,33.329,1.042,1.314
20050707,022225,712451,32.924776,-118.960418,16.239,33.331,1.090,1.401
20050707,022256,712482,32.924798,-118.960443,16.240,33.341,1.090,1.401
20050707,022325,712510,32.924796,-118.960488,16.240,33.343,1.053,1.331
20050707,022355,712540,32.924775,-118.960543,16.237,33.345,1.085,1.390
20050707,022425,712571,32.924765,-118.960626,16.237,33.343,1.074,1.370
20050707,022455,712601,32.924745,-118.960703,16.236,33.343,1.117,1.450
20050707,022525,712631,32.924766,-118.960801,16.235,33.342,1.063,1.353
20050707,022555,712660,32.924808,-118.960883,16.234,33.343,1.047,1.323
20050707,022625,712690,32.924896,-118.960938,16.235,33.343,1.047,1.322
20050707,022656,712722,32.924980,-118.960950,16.235,33.338,1.037,1.302
20050707,022725,712751,32.925071,-118.960958,16.235,33.341,1.069,1.360
20050707,022755,712781,32.925153,-118.960993,16.233,33.343,1.042,1.311
20050707,022825,712811,32.925218,-118.961055,16.235,33.341,1.069,1.359
20050707,022855,712840,32.925246,-118.961145,16.231,33.342,1.080,1.378
20050707,022925,712870,32.925270,-118.961246,16.232,33.344,1.026,1.281
20050707,022956,712901,32.925295,-118.961340,16.231,33.339,1.080,1.377
20050707,023025,712931,32.925338,-118.961426,16.230,33.340,1.096,1.406
20050707,023056,712962,32.925385,-118.961465,16.230,33.341,1.150,1.506
20050707,023125,712991,32.925441,-118.961476,16.229,33.341,1.069,1.357
20050707,023155,713020,32.925500,-118.961476,16.229,33.340,1.085,1.386
20050707,023225,713051,32.925566,-118.961528,16.227,33.340,1.117,1.445
20050707,023255,713081,32.925603,-118.961613,16.224,33.339,1.090,1.394
20050707,023326,713111,32.925636,-118.961725,16.224,33.338,1.063,1.344
20050707,023355,713141,32.925671,-118.961875,16.224,33.340,1.053,1.325
20050707,023426,713172,32.925723,-118.962030,16.222,33.338,1.117,1.443
20050707,023455,713200,32.925805,-118.962211,16.224,33.334,1.047,1.315
20050707,023525,713231,32.925888,-118.962395,16.225,33.335,1.085,1.383
20050707,023555,713261,32.925955,-118.962600,16.225,33.335,1.107,1.421
20050707,023626,713291,32.926011,-118.962803,16.222,33.337,1.080,1.371
20050707,023655,713321,32.926078,-118.962985,16.217,33.337,1.069,1.351
20050707,023725,713350,32.926120,-118.963151,16.215,33.337,1.128,1.459
20050707,023756,713382,32.926166,-118.963313,16.213,33.335,1.101,1.410
20050707,023825,713411,32.926195,-118.963495,16.210,33.337,1.150,1.499
20050707,023856,713441,32.926210,-118.963675,16.210,33.335,1.047,1.312
20050707,023925,713471,32.926258,-118.963833,16.208,33.335,1.107,1.418
20050707,023955,713500,32.926296,-118.963971,16.206,33.324,1.090,1.389
20050707,024025,713530,32.926340,-118.964130,16.204,33.335,1.074,1.359
20050707,024056,713562,32.926390,-118.964320,16.203,33.335,1.101,1.407
20050707,024125,713591,32.926438,-118.964505,16.202,33.335,1.096,1.397
20050707,024155,713621,32.926503,-118.964703,16.199,33.335,1.090,1.388
20050707,024225,713651,32.926560,-118.964916,16.197,33.336,1.069,1.348
20050707,024255,713680,32.926608,-118.965051,16.198,33.335,1.107,1.416
20050707,024325,713710,32.926645,-118.965216,16.196,33.335,1.090,1.386
20050707,024355,713741,32.926673,-118.965363,16.196,33.334,1.058,1.328
20050707,024425,713771,32.926695,-118.965511,16.194,33.342,1.063,1.338
20050707,024455,713801,32.926733,-118.965675,16.193,33.342,1.080,1.366
20050707,024526,713832,32.926778,-118.965836,16.192,33.340,1.090,1.385
20050707,024555,713860,32.926806,-118.966030,16.192,33.340,1.133,1.464
20050707,024625,713890,32.926845,-118.966205,16.192,33.338,1.193,1.574